1300320026146,16.8958
1300320086146,16.8532
1300320146146,16.8740
1300320206146,16.8963
1300320266146,16.8741
1300320326146,16.8638
1300320386146,16.8651
1300320446146,16.8395
1300320506146,16.8305
1300320566146,16.8726
1300320626146,16.8195
1300320686146,16.8258
1300320746146,16.8329
1300320806146,16.8232
1300320866146,16.8098
1300320926146,16.8212
1300320986146,16.8249
1300321046146,16.8419
1300321106146,16.8136
1300321166146,16.7827
1300321226146,16.8294
1300321286146,16.8361
1300321346146,16.7963
1300321406146,16.8537
1300321466146,16.8223
1300321526146,16.8655
1300321586146,16.8223
1300321646146,16.7771
1300321706146,16.8484
1300321766146,16.8080
1300321826146,16.7991
1300321886146,16.7430
1300321946146,16.8275
1300322006146,16.8087
1300322066146,16.8141
1300322126146,16.8194
1300322186146,16.8251
1300322246146,16.8101
1300322306146,16.8037
1300322366146,16.8319
1300322426146,16.7843
1300322486146,16.8521
1300322546146,16.8369
1300322606146,16.8893
1300322666146,16.7913
1300322726146,16.8264
1300322786146,16.8816
1300322846146,16.8230
1300322906146,16.8326
1300322966146,16.8332
1300323026146,16.8244
1300323086146,16.8501
1300323146146,16.8260
1300323206146,16.8290
1300323266146,16.8067
1300323326146,16.8346
1300323386146,16.8212
1300323446146,16.8068
1300323506146,16.8062
1300323566146,16.8185
1300323626159,16.8047
1300323686159,16.8207
1300323746159,16.8490
1300323806159,16.8112
1300323866159,16.7841
1300323926159,16.8656
1300323986159,16.8628
1300324046159,16.7914
1300324106159,16.8001
1300324166159,16.8026
1300324226159,16.7835
1300324286159,16.8095
1300324346159,16.8137
1300324406159,16.7841
1300324466159,16.7716
1300324526159,16.8036
1300324586159,16.8094
1300324646159,16.8138
1300324706159,16.8434
1300324766159,16.8421
1300324826159,16.8686
1300324886159,16.8899
1300324946159,16.8506
1300325006159,16.7994
1300325066159,16.8464
1300325126159,16.8409
1300325186159,16.8725
1300325246159,16.8295
1300325306159,16.8156
1300325366159,16.7678
1300325426159,16.7964
1300325486159,16.8352
1300325546159,16.7954
1300325606159,16.7960
1300325666159,16.8219
1300325726159,16.7745
1300325786159,16.8218
1300325846159,16.7727
1300325906159,16.7806
1300325966159,16.8278
1300326026159,16.8554
1300326086159,16.8499
1300326146159,16.8281
1300326206159,16.7839
1300326266159,16.8063
1300326326159,16.7686
1300326386159,16.7797
1300326446159,16.7729
1300326506159,16.7951
1300326566159,16.7598
1300326626159,16.7601
1300326686159,16.7312
1300326746159,16.7460
1300326806159,16.7436
1300326866159,16.7526
1300326926159,16.7871
1300326986159,16.7193
1300327046159,16.7324
1300327106159,16.7809
1300327166159,16.7734
1300327226172,16.8010
1300327286172,16.7498
1300327346172,16.7415
1300327406172,16.7315
1300327466172,16.7608
1300327526172,16.7364
1300327586172,16.7338
1300327646172,16.7673
1300327706172,16.6973
1300327766172,16.6997
1300327826172,16.7372
1300327886172,16.7046
1300327946172,16.6923
1300328006172,16.6803
1300328066172,16.6935
1300328126172,16.7109
1300328186172,16.7178
1300328246172,16.7217
1300328306172,16.7314
1300328366172,16.7327
1300328426172,16.7158
1300328486172,16.7275
1300328546172,16.7775
1300328606172,16.7740
1300328666172,16.7796
1300328726172,16.7659
1300328786172,16.7299
1300328846172,16.7353
1300328906172,16.7578
1300328966172,16.7450
1300329026172,16.7485
1300329086172,16.7385
1300329146172,16.6994
1300329206172,16.7359
1300329266172,16.7345
1300329326172,16.7507
1300329386172,16.7106
1300329446172,16.7553
1300329506172,16.7309
1300329566172,16.7011
1300329626172,16.6836
1300329686172,16.7033
1300329746172,16.6789
1300329806172,16.6952
1300329866172,16.6827
1300329926172,16.6447
1300329986172,16.6251
1300330046172,16.6445
1300330106172,16.6537
1300330166172,16.6209
1300330226172,16.6447
1300330286172,16.6587
1300330346172,16.6479
1300330406172,16.6532
1300330466172,16.6892
1300330526172,16.6841
1300330586172,16.6779
1300330646172,16.6716
1300330706172,16.6770
1300330766172,16.6926
1300330826185,16.6937
1300330886185,16.6668
1300330946185,16.6967
1300331006185,16.7081
1300331066185,16.7014
1300331126185,16.6892
1300331186185,16.7029
1300331246185,16.7322
1300331306185,16.6895
1300331366185,16.6997
1300331426185,16.6716
1300331486185,16.7323
1300331546185,16.6995
1300331606185,16.7371
1300331666185,16.7123
1300331726185,16.6852
1300331786185,16.7028
1300331846185,16.7016
1300331906185,16.7107
1300331966185,16.8254
1300332026185,16.8516
1300332086185,16.8358
1300332146185,16.8761
1300332206185,16.8377
1300332266185,16.7992
1300332326185,16.8061
1300332386185,16.8087
1300332446185,16.8045
1300332506185,16.8097
1300332566185,16.8074
1300332626185,16.7772
1300332686185,16.7946
1300332746185,16.7677
1300332806185,16.7932
1300332866185,16.8058
1300332926185,16.8024
1300332986185,16.8384
1300333046185,16.7775
1300333106185,16.7949
1300333166185,16.7687
1300333226185,16.7706
1300333286185,16.7801
1300333346185,16.7527
1300333406185,16.7915
1300333466185,16.7858
1300333526185,16.7879
1300333586185,16.7551
1300333646185,16.7697
1300333706185,16.7859
1300333766185,16.7526
1300333826185,16.7404
1300333886185,16.7380
1300333946185,16.6987
1300334006185,16.7471
1300334066185,16.6928
1300334126185,16.6957
1300334186185,16.6688
1300334246185,16.7109
1300334306185,16.7326
1300334366185,16.7040
1300334426197,16.7105
1300334486197,16.6917
1300334546197,16.7609
1300334606197,16.7584
1300334666197,16.6749
1300334726197,16.6969
1300334786197,16.7155
1300334846197,16.6863
1300334906197,16.6774
1300334966197,16.7224
1300335026197,16.6666
1300335086197,16.7190
1300335146197,16.7215
1300335206197,16.6821
1300335266197,16.6658
1300335326197,16.7010
1300335386197,16.7027
1300335446197,16.6547
1300335506197,16.7444
1300335566197,16.7162
1300335626197,16.7377
1300335686197,16.7281
1300335746197,16.7377
1300335806197,16.7329
1300335866197,16.7339
1300335926197,16.7319
1300335986197,16.7186
1300336046197,16.7497
1300336106197,16.7886
1300336166197,16.7713
1300336226197,16.7534
1300336286197,16.7668
1300336346197,16.7795
1300336406197,16.7781
1300336466197,16.8007
1300336526197,16.7888
1300336586197,16.7634
1300336646197,16.7319
1300336706197,16.7217
1300336766197,16.7280
1300336826197,16.7398
1300336886197,16.7379
1300336946197,16.7331
1300337006197,16.6817
1300337066197,16.6967
1300337126197,16.6944
1300337186197,16.7008
1300337246197,16.6530
1300337306197,16.6493
1300337366197,16.6481
1300337426197,16.6810
1300337486197,16.6889
1300337546197,16.6678
1300337606197,16.6470
1300337666197,16.6549
1300337726197,16.6838
1300337786197,16.6339
1300337846197,16.6496
1300337906197,16.6488
1300337966197,16.6902
1300338026210,16.6234
1300338086210,16.6360
1300338146210,16.5967
1300338206210,16.6412
1300338266210,16.6015
1300338326210,16.6332
1300338386210,16.6335
1300338446210,16.6530
1300338506210,16.6241
1300338566210,16.6352
1300338626210,16.6500
1300338686210,16.7056
1300338746210,16.6585
1300338806210,16.6684
1300338866210,16.6517
1300338926210,16.6701
1300338986210,16.6359
1300339046210,16.6551
1300339106210,16.7112
1300339166210,16.6575
1300339226210,16.6634
1300339286210,16.6681
1300339346210,16.6529
1300339406210,16.6425
1300339466210,16.6815
1300339526210,16.6616
1300339586210,16.6629
1300339646210,16.6356
1300339706210,16.6307
1300339766210,16.6676
1300339826210,16.6365
1300339886210,16.6428
1300339946210,16.6779
1300340006210,16.6419
1300340066210,16.6481
1300340126210,16.6612
1300340186210,16.6812
1300340246210,16.6699
1300340306210,16.6394
1300340366210,16.6500
1300340426210,16.6789
1300340486210,16.6511
1300340546210,16.6996
1300340606210,16.6570
1300340666210,16.6333
1300340726210,16.5668
1300340786210,16.6375
1300340846210,16.6019
1300340906210,16.6008
1300340966210,16.6519
1300341026210,16.6262
1300341086210,16.6132
1300341146210,16.6281
1300341206210,16.6318
1300341266210,16.6378
1300341326210,16.6017
1300341386210,16.6633
1300341446210,16.6413
1300341506210,16.6167
1300341566210,16.5972
1300341626223,16.5738
1300341686223,16.6078
1300341746223,16.6571
1300341806223,16.6364
1300341866223,16.5998
1300341926223,16.5727
1300341986223,16.5911
1300342046223,16.6332
1300342106223,16.6287
1300342166223,16.6354
1300342226223,16.6186
1300342286223,16.6457
1300342346223,16.6530
1300342406223,16.6507
1300342466223,16.6152
1300342526223,16.6138
1300342586223,16.6622
1300342646223,16.7090
1300342706223,16.6288
1300342766223,16.6491
1300342826223,16.6938
1300342886223,16.6091
1300342946223,16.6122
1300343006223,16.6269
1300343066223,16.6824
1300343126223,16.6931
1300343186223,16.6568
1300343246223,16.6171
1300343306223,16.5793
1300356146271,16.7670
1300356206271,16.6913
1300356266271,16.6968
1300356326271,16.6991
1300356386271,16.6642
1300356446271,16.6910
1300356506271,16.6714
1300356566271,16.6599
1300356626271,16.6044
1300356686271,16.7149
1300356746271,16.6304
1300356806271,16.6535
1300356866271,16.6481
1300356926271,16.6321
1300356986271,16.6509
1300357046271,16.6670
1300357106271,16.6150
1300357166271,16.5949
1300357226271,16.6523
1300357286271,16.6486
1300357346271,16.6700
1300357406271,16.6106
1300357466271,16.6416
1300357526271,16.6363
1300357586271,16.6607
1300357646271,16.6279
1300357706271,16.5982
1300357766271,16.6392
1300357826271,16.6196
1300357886271,16.6128
1300357946271,16.6470
1300358006271,16.5857
1300358066271,16.6576
1300358126271,16.6723
1300358186271,16.6739
1300358246271,16.6484
1300358306271,16.6638
1300358366271,16.6585
1300358426271,16.6617
1300358486271,16.6481
1300358546271,16.6552
1300358606271,16.6581
1300358666271,16.6738
1300358726271,16.6591
1300358786271,16.6688
1300358846271,16.6878
1300358906271,16.6538
1300358966271,16.6353
1300359026271,16.6657
1300359086271,16.6614
1300359146271,16.6522
1300359206271,16.6394
1300359266271,16.6047
1300359326271,16.6403
1300359386271,16.6107
1300359446271,16.6127
1300359506271,16.5977
1300359566271,16.5911
1300359626284,16.6021
1300359686284,16.6246
1300359746284,16.6257
1300359806284,16.6387
1300359866284,16.6625
1300359926284,16.6553
1300359986284,16.6347
1300360046284,16.6506
1300360106284,16.6442
1300360166284,16.6424
1300360226284,16.6847
1300360286284,16.6936
1300360346284,16.6795
1300360406284,16.6750
1300360466284,16.6745
1300360526284,16.6140
1300360586284,16.6014
1300360646284,16.6105
1300360706284,16.6189
1300360766284,16.5934
1300360826284,16.5864
1300360886284,16.6322
1300360946284,16.5956
1300361006284,16.5955
1300361066284,16.5906
1300361126284,16.6117
1300361186284,16.6550
1300361246284,16.6323
1300361306284,16.6415
1300361366284,16.6365
1300361426284,16.6424
1300361486284,16.6253
1300361546284,16.6121
1300361606284,16.6363
1300361666284,16.6429
1300361726284,16.6711
1300361786284,16.6331
1300361846284,16.6175
1300361906284,16.6211
1300361966284,16.6436
1300362026284,16.6840
1300362086284,16.6649
1300362146284,16.6809
1300362206284,16.6672
1300362266284,16.6515
1300362326284,16.6364
1300362386284,16.6847
1300362446284,16.6390
1300362506284,16.6856
1300362566284,16.7056
1300362626284,16.6860
1300362686284,16.6748
1300362746284,16.6800
1300362806284,16.6942
1300362866284,16.6878
1300362926284,16.6779
1300362986284,16.6796
1300363046284,16.6642
1300363106284,16.7059
1300363166284,16.6589
1300363226296,16.6609
1300363286296,16.6655
1300363346296,16.6618
1300363406296,16.6417
1300363466296,16.6434
1300363526296,16.6562
1300363586296,16.6606
1300363646296,16.6368
1300363706296,16.7010
1300363766296,16.6678
1300363826296,16.6893
1300363886296,16.6833
1300363946296,16.6986
1300364006296,16.6898
1300364066296,16.6741
1300364126296,16.6865
1300364186296,16.6781
1300364246296,16.6853
1300364306296,16.6834
1300364366296,16.6722
1300364426296,16.6631
1300364486296,16.6696
1300364546296,16.7421
1300364606296,16.7175
1300364666296,16.7072
1300364726296,16.7316
1300364786296,16.6912
1300364846296,16.7045
1300364906296,16.7062
1300364966296,16.6890
1300365026296,16.6846
1300365086296,16.7281
1300365146296,16.7078
1300365206296,16.7243
1300365266296,16.7016
1300365326296,16.6957
1300365386296,16.7103
1300365446296,16.6854
1300365506296,16.6417
1300365566296,16.7236
1300365626296,16.6611
1300365686296,16.7255
1300365746296,16.6187
1300365806296,16.6326
1300365866296,16.6680
1300365926296,16.7110
1300365986296,16.6740
1300366046296,16.6902
1300366106296,16.6596
1300366166296,16.6591
1300366226296,16.7093
1300366286296,16.6878
1300366346296,16.6555
1300366406296,16.6648
1300366466296,16.7332
1300366526296,16.7084
1300366586296,16.7352
1300366646296,16.6722
1300366706296,16.6858
1300366766296,16.6958
1300366826309,16.7398
1300366886309,16.7061
1300366946309,16.7419
1300367006309,16.7180
1300367066309,16.7239
1300367126309,16.7353
1300367186309,16.7075
1300367246309,16.7554
1300367306309,16.7075
1300367366309,16.7485
1300367426309,16.6900
1300367486309,16.6780
1300367546309,16.6775
1300367606309,16.7059
1300367666309,16.7312
1300367726309,16.7185
1300367786309,16.6979
1300367846309,16.7266
1300367906309,16.7111
1300367966309,16.7142
1300368026309,16.7329
1300368086309,16.6938
1300368146309,16.6444
1300368206309,16.6985
1300368266309,16.7352
1300368326309,16.6971
1300368386309,16.6961
1300368446309,16.6724
1300368506309,16.6432
1300368566309,16.6988
1300368626309,16.6603
1300368686309,16.6861
1300368746309,16.6801
1300368806309,16.6681
1300368866309,16.6997
1300368926309,16.6780
1300368986309,16.6481
1300369046309,16.6244
1300369106309,16.6660
1300369166309,16.6953
1300369226309,16.6711
1300369286309,16.6901
1300369346309,16.6866
1300369406309,16.6745
1300369466309,16.6779
1300369526309,16.6674
1300369586309,16.7112
1300369646309,16.6467
1300369706309,16.6600
1300369766309,16.6878
1300369826309,16.6911
1300369886309,16.6533
1300369946309,16.6628
1300370006309,16.6441
1300370066309,16.6518
1300370126309,16.7300
1300370186309,16.6529
1300370246309,16.6813
1300370306309,16.6726
1300370366309,16.6628
1300370426322,16.7014
1300370486322,16.6839
1300370546322,16.7057
1300370606322,16.7604
1300370666322,16.6940
1300370726322,16.7717
1300370786322,16.6899
1300370846322,16.6916
1300370906322,16.7039
1300370966322,16.6698
1300371026322,16.7104
1300371086322,16.6489
1300371146322,16.6287
1300371206322,16.6879
1300371266322,16.7438
1300371326322,16.6920
1300371386322,16.6971
1300371446322,16.7263
1300371506322,16.6738
1300371566322,16.7351
1300371626322,16.7205
1300371686322,16.7052
1300371746322,16.6463
1300371806322,16.6936
1300371866322,16.6837
1300371926322,16.6547
1300371986322,16.6842
1300372046322,16.6480
1300372106322,16.6805
1300372166322,16.6431
1300372226322,16.6894
1300372286322,16.6315
1300372346322,16.6565
1300372406322,16.6437
1300372466322,16.6899
1300372526322,16.6354
1300372586322,16.6501
1300372646322,16.6839
1300372706322,16.6837
1300372766322,16.6575
1300372826322,16.6370
1300372886322,16.6383
1300372946322,16.6682
1300373006322,16.6616
1300373066322,16.6640
1300373126322,16.6396
1300373186322,16.6205
1300373246322,16.6426
1300373306322,16.6022
1300373366322,16.5859
1300373426322,16.6433
1300373486322,16.6362
1300373546322,16.6627
1300373606322,16.6082
1300373666322,16.5838
1300373726322,16.6344
1300373786322,16.6399
1300373846322,16.6167
1300373906322,16.6022
1300373966322,16.6609
1300374026334,16.6022
1300374086334,16.6157
1300374146334,16.6075
1300374206334,16.5795
1300374266334,16.5978
1300374326334,16.6376
1300374386334,16.6022
1300374446334,16.6025
1300374506334,16.6482
1300374566334,16.6928
1300374626334,16.6513
1300374686334,16.6397
1300374746334,16.6425
1300374806334,16.5683
1300374866334,16.6233
1300374926334,16.6486
1300374986334,16.6222
1300375046334,16.5359
1300375106334,16.6080
1300375166334,16.5989
1300375226334,16.6027
1300375286334,16.6127
1300375346334,16.5951
1300375406334,16.5968
1300375466334,16.6087
1300375526334,16.5870
1300375586334,16.5963
1300375646334,16.5712
1300375706334,16.5477
1300375766334,16.5651
1300375826334,16.5818
1300375886334,16.5721
1300375946334,16.5160
1300376006334,16.5512
1300376066334,16.6140
1300376126334,16.5868
1300376186334,16.5460
1300376246334,16.5878
1300376306334,16.6086
1300376366334,16.6015
1300376426334,16.5764
1300376486334,16.6090
1300376546334,16.6064
1300376606334,16.5774
1300376666334,16.6068
1300376726334,16.6110
1300376786334,16.5784
1300376846334,16.5763
1300376906334,16.5691
1300376966334,16.6470
1300377026334,16.5958
1300377086334,16.5913
1300377146334,16.6032
1300377206334,16.5778
1300377266334,16.6182
1300377326334,16.5692
1300377386334,16.5805
1300377446334,16.6250
1300377506334,16.6097
1300377566334,16.5573
1300377626347,16.6043
1300377686347,16.5927
1300377746347,16.5921
1300377806347,16.6149
1300377866347,16.6077
1300377926347,16.5748
1300377986347,16.6190
1300378046347,16.5629
1300378106347,16.6347
1300378166347,16.5830
1300378226347,16.5846
1300378286347,16.5800
1300378346347,16.5824
1300378406347,16.6174
1300378466347,16.6068
1300378526347,16.6135
1300378586347,16.6117
1300378646347,16.5700
1300378706347,16.6285
1300378766347,16.6469
1300378826347,16.6196
1300378886347,16.6442
1300378946347,16.6182
1300379006347,16.6051
1300379066347,16.6146
1300379126347,16.5969
1300379186347,16.6348
1300379246347,16.6063
1300379306347,16.5840
1300379366347,16.5709
1300379426347,16.5679
1300379486347,16.5618
1300379546347,16.5918
1300379606347,16.6136
1300379666347,16.5650
1300379726347,16.5677
1300379786347,16.6109
1300379846347,16.5919
1300379906347,16.6148
1300379966347,16.5816
1300380026347,16.5564
1300380086347,16.5592
1300380146347,16.5514
1300380206347,16.5257
1300380266347,16.5337
1300380326347,16.5742
1300380386347,16.5682
1300380446347,16.5589
1300380506347,16.5497
1300380566347,16.5825
1300380626347,16.6206
1300380686347,16.5663
1300380746347,16.6006
1300380806347,16.5361
1300380866347,16.5541
1300380926347,16.5427
1300380986347,16.5083
1300381046347,16.5108
1300381106347,16.5484
1300381166347,16.5371
1300381226359,16.5040
1300381286359,16.4966
1300381346359,16.5732
1300381406359,16.5352
1300381466359,16.5114
1300381526359,16.5450
1300381586359,16.5594
1300381646359,16.5569
1300381706359,16.5413
1300381766359,16.5504
1300381826359,16.5098
1300381886359,16.5596
1300381946359,16.5539
1300382006359,16.5247
1300382066359,16.5430
1300382126359,16.5054
1300382186359,16.5525
1300382246359,16.5530
1300382306359,16.5369
1300382366359,16.5560
1300382426359,16.5122
1300382486359,16.5785
1300382546359,16.5788
1300382606359,16.5621
1300382666359,16.5457
1300382726359,16.6255
1300382786359,16.6168
1300382846359,16.6354
1300382906359,16.5681
1300382966359,16.6223
1300383026359,16.6314
1300383086359,16.6097
1300383146359,16.6143
1300383206359,16.5959
1300383266359,16.6673
1300383326359,16.6457
1300383386359,16.6979
1300383446359,16.6524
1300383506359,16.6452
1300383566359,16.6469
1300383626359,16.6280
1300383686359,16.5941
1300383746359,16.6207
1300383806359,16.6570
1300383866359,16.6272
1300383926359,16.6132
1300383986359,16.6278
1300384046359,16.5562
1300384106359,16.6036
1300384166359,16.6457
1300384226359,16.6262
1300384286359,16.6018
1300384346359,16.6052
1300384406359,16.6355
1300384466359,16.6231
1300384526359,16.5889
1300384586359,16.5976
1300384646359,16.6372
1300384706359,16.5907
1300384766359,16.6629
1300384826371,16.5824
1300384886371,16.6110
1300384946371,16.5870
1300385006371,16.5784
1300385066371,16.5838
1300385126371,16.5775
1300385186371,16.5422
1300385246371,16.5802
1300385306371,16.5997
1300385366371,16.5906
1300385426371,16.6179
1300385486371,16.5887
1300385546371,16.6124
1300385606371,16.5677
1300385666371,16.5953
1300385726371,16.5832
1300385786371,16.5386
1300385846371,16.6356
1300385906371,16.6100
1300385966371,16.6245
1300386026371,16.6644
1300386086371,16.6314
1300386146371,16.6377
1300386206371,16.6564
1300386266371,16.6363
1300386326371,16.6189
1300386386371,16.5884
1300386446371,16.5731
1300386506371,16.6426
1300386566371,16.6551
1300386626371,16.6619
1300386686371,16.6667
1300386746371,16.6689
1300386806371,16.7007
1300386866371,16.6609
1300386926371,16.6427
1300386986371,16.6688
1300387046371,16.6774
1300387106371,16.6986
1300387166371,16.6955
1300387226371,16.7192
1300387286371,16.6450
1300387346371,16.6547
1300387406371,16.6058
1300387466371,16.6096
1300387526371,16.5832
1300387586371,16.6535
1300387646371,16.6346
1300387706371,16.6599
1300387766371,16.6277
1300387826371,16.5984
1300387886371,16.5977
1300387946371,16.6284
1300388006371,16.6057
1300388066371,16.6235
1300388126371,16.6140
1300388186371,16.5845
1300388246371,16.6761
1300388306371,16.5852
1300388366371,16.6589
1300388426384,16.6098
1300388486384,16.5972
1300388546384,16.6359
1300388606384,16.6458
1300388666384,16.5774
1300388726384,16.6565
1300388786384,16.6747
1300388846384,16.6465
1300388906384,16.6766
1300388966384,16.6659
1300389026384,16.6605
1300389086384,16.6146
1300389626384,16.6125
1300389686384,16.5737
1300389746384,16.5811
1300389806384,16.6040
1300389866384,16.5550
1300389926384,16.5686
1300389986384,16.5647
1300390046384,16.5342
1300390106384,16.5745
1300390166384,16.5813
1300390226384,16.5666
1300390286384,16.6042
1300390346384,16.5733
1300390406384,16.5712
1300390466384,16.5678
1300390526384,16.5715
1300390586384,16.5899
1300390646384,16.5660
1300390706384,16.5637
1300390766384,16.5662
1300390826384,16.5682
1300390886384,16.5796
1300390946384,16.6058
1300391006384,16.5918
1300391066384,16.5570
1300391126384,16.5806
1300391186384,16.5914
1300391246384,16.5496
1300391306384,16.5171
1300391366384,16.5415
1300391426384,16.6445
1300391486384,16.5583
1300391546384,16.6185
1300391606384,16.5321
1300391666384,16.5827
1300391726384,16.6383
1300391786384,16.5715
1300391846384,16.5849
1300391906384,16.5854
1300391966384,16.5636
1300392026396,16.5917
1300392086396,16.5760
1300392146396,16.5601
1300392206396,16.5658
1300392266396,16.5649
1300392326396,16.5646
1300392386396,16.5371
1300392446396,16.5730
1300392506396,16.5930
1300392566396,16.5814
1300392626396,16.5940
1300392686396,16.5686
1300392746396,16.5086
1300392806396,16.5679
1300392866396,16.5329
1300392926396,16.5277
1300392986396,16.5407
1300393046396,16.5890
1300393106396,16.5359
1300393166396,16.5071
1300393226396,16.5214
1300393286396,16.5544
1300393346396,16.5931
1300393406396,16.5561
1300393466396,16.5278
1300393526396,16.5789
1300393586396,16.5278
1300393646396,16.5093
1300393706396,16.5550
1300393766396,16.5069
1300393826396,16.5539
1300393886396,16.5232
1300393946396,16.5341
1300394006396,16.5658
1300394066396,16.5675
1300394126396,16.5751
1300394186396,16.5758
1300394246396,16.5628
1300394306396,16.5541
1300394366396,16.5662
1300394426396,16.5648
1300394486396,16.5611
1300394546396,16.5544
1300394606396,16.5491
1300394666396,16.5503
1300394726396,16.5347
1300394786396,16.4989
1300394846396,16.5288
1300394906396,16.5293
1300394966396,16.6347
1300395026396,16.5686
1300395086396,16.6004
1300395146396,16.5742
1300395206396,16.5564
1300395266396,16.5819
1300395326396,16.5811
1300395386396,16.5857
1300395446396,16.5626
1300395506396,16.5627
1300395566396,16.5251
1300395626393,16.5744
1300395686393,16.5788
1300395746393,16.5655
1300395806393,16.5524
1300395866393,16.5752
1300395926393,16.5777
1300395986393,16.5412
1300396046393,16.5064
1300396106393,16.5469
1300396166393,16.5455
1300396226393,16.5459
1300396286393,16.5184
1300396346393,16.5562
1300396406393,16.5566
1300396466393,16.5080
1300396526393,16.5421
1300396586393,16.5636
1300396646393,16.5462
1300396706393,16.5641
1300396766393,16.5164
1300396826393,16.5892
1300396886393,16.5094
1300396946393,16.5387
1300397006393,16.5435
1300397066393,16.5084
1300397126393,16.4865
1300397186393,16.5710
1300397246393,16.5259
1300397306393,16.5130
1300397366393,16.5301
1300397426393,16.5853
1300397486393,16.5183
1300397546393,16.5861
1300397606393,16.5437
1300397666393,16.5007
1300397726393,16.5649
1300397786393,16.5731
1300397846393,16.5155
1300397906393,16.5287
1300397966393,16.5865
1300398026393,16.5725
1300398086393,16.5462
1300398146393,16.5303
1300398206393,16.5671
1300398266393,16.5767
1300398326393,16.5513
1300398386393,16.5450
1300398446393,16.5620
1300398506393,16.6138
1300398566393,16.4854
1300398626393,16.5143